Location: Beddau
(51.5575°N, 3.3561°W)
Time: 00:59:52
(UTC+00:00)

SL-8 Rocket - Pass Details

Date: 03 March 2021
Orbit: 957 x 991 km, 82.9° (Epoch: 13 April)

Event Time Altitude Azimuth Distance (km) Brightness Sun altitude
Rises 19:51:51 0° 182° (S) 3,668 6.9 -18.5°
Reaches altitude 10° 19:54:21 10° 181° (S) 2,720 6.2 -18.8°
Maximum altitude 20:00:34 78° 97° (E) 998 3.9 -19.8°
Drops below altitude 10° 20:06:47 10° 12° (NNE) 2,715 6.4 -20.7°
Sets 20:09:17 0° 11° (NNE) 3,662 7.1 -21.1°
